Theta_e
313 314 313 312 311 313 311 314 314 313 312 311 310 309 308 306 304 302 301 300 299 298 297 297 297 297 298
305 309 312 312 312 310 309 311 313 311 311 309 308 308 307 304 303 302 300 299 298 296 295 295 295 295 296
304 309 311 312 310 307 307 309 310 308 309 308 308 307 306 304 302 301 300 298 297 295 294 293 293 293 294
305 306 308 310 310 304 302 305 305 307 307 306 306 306 305 304 302 301 299 297 296 295 294 292 291 292 292
304 305 304 305 305 306 304 301 303 304 303 304 304 303 303 303 301 299 298 297 296 295 294 293 291 290 290
304 304 304 306 308 307 303 298 296 300 300 298 301 299 300 301 301 300 298 297 296 295 294 293 291 290 290
306 306 306 307 308 307 305 303 300 297 300 295 297 298 299 299 301 300 298 297 296 295 294 293 291 290 289
309 309 310 309 310 308 307 305 298 297 303 294 295 297 296 297 301 300 298 297 296 295 294 293 291 290 288
307 305 305 306 308 308 303 301 295 291 298 300 293 295 294 294 297 300 299 298 297 296 295 293 291 289 287
303 303 305 305 304 308 305 300 297 290 293 297 292 292 289 292 294 296 297 299 297 296 295 293 291 289 288
301 304 305 305 306 307 306 304 299 299 296 298 292 293 296 289 292 293 295 296 296 296 295 294 291 289 287
297 301 301 302 303 305 305 305 305 301 296 300 289 294 291 286 286 290 292 295 295 294 292 293 291 289 287
296 298 301 302 301 300 301 299 295 295 296 299 293 295 293 290 286 286 288 290 293 293 292 289 287 285 282
296 296 299 296 294 293 292 292 292 289 293 294 292 292 291 290 288 287 288 286 289 290 288 287 285 284 282
294 291 291 292 290 292 291 291 289 287 285 286 289 290 290 288 287 287 286 286 288 288 285 283 282 282 282
291 290 290 290 288 289 289 290 289 287 286 285 284 285 285 285 287 286 285 285 286 284 284 283 280 281 281
291 290 290 290 289 288 288 289 288 288 287 285 285 286 284 283 282 286 284 284 282 282 282 282 281 280 280
Wind_Speed
8 15 17 14 14 13 11 10 8 16 20 20 20 21 16 13 12 10 9 7 6 4 3 4 5 7 7
10 13 17 17 17 13 10 8 9 17 20 20 20 20 19 15 13 12 9 8 7 5 3 3 4 5 6
11 11 13 14 14 11 10 9 7 18 20 21 20 19 19 18 15 13 12 10 9 7 5 3 3 4 5
12 13 12 15 13 13 8 6 8 9 12 15 17 18 18 18 16 13 12 12 11 9 7 5 2 1 3
12 13 12 14 16 12 13 8 5 6 8 8 8 8 9 14 11 12 13 13 12 10 9 7 4 1 1
13 16 19 16 15 14 13 11 9 3 8 5 7 8 7 8 13 15 16 14 13 11 10 8 5 3 1
20 19 19 21 18 18 18 16 10 7 7 6 6 7 7 8 17 17 18 16 15 13 12 9 7 5 3
19 21 18 19 21 17 16 13 7 7 12 6 6 6 7 6 17 19 20 18 17 15 13 11 8 6 4
9 12 16 23 18 13 13 14 9 5 9 7 6 5 5 7 8 20 20 19 18 17 15 12 10 7 4
8 11 15 17 24 20 16 15 9 4 7 9 6 6 3 5 8 8 10 19 19 18 16 14 12 5 4
9 11 13 15 13 12 14 13 13 5 11 10 5 7 4 3 4 8 9 9 10 11 18 15 13 8 4
10 11 13 13 13 11 12 10 10 4 13 16 5 9 7 5 4 6 7 7 9 9 8 11 13 10 7
12 11 12 12 12 9 7 7 9 7 10 15 6 9 8 5 6 6 10 7 7 8 8 8 8 6 6
12 9 9 11 9 9 8 8 6 4 4 4 7 8 5 4 5 9 7 7 10 9 8 7 6 6 5
10 11 10 11 9 9 8 9 6 8 7 5 6 5 3 7 4 7 8 5 9 9 8 6 6 6 5
11 13 12 12 11 10 8 9 10 9 7 7 9 5 2 3 3 7 6 5 8 8 7 6 6 6 5
12 13 13 11 16 12 11 10 9 9 9 9 10 9 8 6 3 1 7 6 9 7 5 3 4 6 6
Wind_Direction
152 170 167 169 170 165 162 171 167 148 147 148 146 143 153 163 168 172 172 167 155 134 96 64 42 27 16
156 172 172 172 170 163 168 159 157 158 154 154 154 154 156 170 178 178 178 173 172 151 112 73 45 28 15
158 171 172 169 164 155 158 154 153 158 161 162 165 166 163 171 184 182 181 182 177 164 153 128 70 33 14
152 171 170 172 168 156 153 161 149 167 169 169 169 172 171 174 185 185 181 187 186 182 174 163 140 49 9
154 167 170 175 181 170 165 153 156 158 161 170 167 174 178 178 177 181 184 195 197 194 191 187 178 208 341
163 174 181 181 180 176 159 164 176 203 156 159 168 176 176 180 184 187 194 201 203 200 200 200 194 213 273
170 182 177 183 178 176 178 183 176 159 163 170 188 182 181 186 179 181 194 202 207 204 203 201 201 208 207
179 178 177 176 187 179 170 166 106 156 184 177 177 193 172 188 188 187 194 201 205 204 205 202 199 205 191
172 157 161 169 171 157 164 166 165 182 199 183 173 172 177 190 196 198 195 201 206 205 203 200 193 194 196
135 125 152 166 165 175 168 176 163 148 194 182 153 146 193 201 187 193 196 200 204 204 201 200 189 202 223
153 149 162 169 178 182 177 175 174 186 168 167 159 169 188 144 185 186 189 190 197 199 202 200 190 209 224
165 166 169 172 180 177 174 183 181 162 163 175 159 175 159 156 164 177 187 187 188 187 175 197 192 202 226
172 177 178 163 159 145 140 118 105 124 172 183 150 174 176 162 150 169 158 195 188 181 168 168 178 186 188
175 163 153 150 151 150 152 151 132 115 133 144 142 160 163 154 137 159 161 177 181 174 163 165 174 182 200
160 152 158 152 154 160 158 159 160 154 156 141 147 135 97 139 135 165 161 150 174 163 154 161 179 182 190
165 163 160 162 158 164 162 174 168 162 159 152 148 130 115 77 25 152 156 147 161 159 153 154 173 179 183
166 163 159 166 161 165 166 170 170 164 167 155 171 169 168 176 111 150 152 147 150 155 150 129 152 165 171